KD0OXW Weather Reports


time (UTC)temp
C
wind
direction
speed
KPH
gust
KPH
rain 1hr
cm
rain 24hr
cm
rain mn
cm
humidity
%
barometer
mb
20260510002254 9 243 9.7 12.9 0.00 0.00 0.00 37 1010.6
20260510001754 9 298 8.0 22.5 0.00 0.00 0.00 38 1010.6
20260510001254 9 327 8.0 25.7 0.00 0.00 0.00 38 1010.4
20260510000754 9 0 9.7 16.1 0.00 0.00 0.00 38 1010.4
20260510000256 9 30 9.7 17.7 0.00 0.00 0.00 38 1010.4
20260509235754 10 256 6.4 20.9 0.00 0.00 0.00 38 1010.3
20260509235254 10 9 6.4 12.9 0.00 0.00 0.00 38 1010.2
20260509234754 10 0 6.4 17.7 0.00 0.00 0.00 38 1010.1
20260509234254 10 346 9.7 14.5 0.00 0.00 0.00 38 1010.1
20260509233754 10 321 9.7 19.3 0.00 0.00 0.00 38 1010.0
20260509233254 10 297 8.0 20.9 0.00 0.00 0.00 37 1010.0
20260509232754 10 329 9.7 20.9 0.00 0.00 0.00 37 1009.9
20260509232254 10 17 8.0 17.7 0.00 0.00 0.00 37 1009.9
20260509231754 10 331 6.4 19.3 0.00 0.00 0.00 37 1009.8
20260509231254 10 355 8.0 17.7 0.00 0.00 0.00 36 1009.8
20260509230754 10 298 9.7 19.3 0.00 0.00 0.00 36 1009.7
20260509230254 10 336 8.0 16.1 0.00 0.00 0.00 36 1009.7
20260509225754 10 319 9.7 19.3 0.00 0.00 0.00 36 1009.6
20260509225254 10 296 9.7 24.1 0.00 0.00 0.00 35 1009.5
20260509224754 10 348 9.7 14.5 0.00 0.00 0.00 36 1009.5
20260509224254 10 323 9.7 25.7 0.00 0.00 0.00 36 1009.4
20260509223754 10 347 11.3 22.5 0.00 0.00 0.00 37 1009.4
20260509223254 10 5 14.5 20.9 0.00 0.00 0.00 36 1009.4
20260509222754 10 0 14.5 27.4 0.00 0.00 0.00 36 1009.4
20260509222255 10 328 12.9 25.7 0.00 0.00 0.00 37 1009.3
20260509221754 11 27 14.5 19.3 0.00 0.00 0.00 36 1009.3
20260509221254 11 344 14.5 20.9 0.00 0.00 0.00 37 1009.2
20260509220754 11 339 11.3 24.1 0.00 0.00 0.00 37 1009.2
20260509220254 11 300 9.7 29.0 0.00 0.00 0.00 35 1009.1
20260509215754 11 289 6.4 17.7 0.00 0.00 0.00 38 1009.1
20260509215254 11 28 8.0 22.5 0.00 0.00 0.00 39 1009.1
20260509214754 11 336 11.3 19.3 0.00 0.00 0.00 37 1009.2
20260509214254 11 322 9.7 19.3 0.00 0.00 0.00 37 1009.1
20260509213754 10 252 11.3 20.9 0.00 0.00 0.00 38 1009.0
20260509213254 10 350 12.9 20.9 0.00 0.00 0.00 37 1009.0
20260509212754 10 355 11.3 27.4 0.00 0.00 0.00 37 1008.9
20260509212254 10 10 9.7 17.7 0.00 0.00 0.00 37 1008.9
20260509211754 10 296 12.9 25.7 0.00 0.00 0.00 37 1008.8
20260509211255 11 9 11.3 22.5 0.00 0.00 0.00 37 1008.8
20260509210755 11 348 8.0 24.1 0.00 0.00 0.00 37 1008.7
20260509210254 10 0 9.7 24.1 0.00 0.00 0.00 37 1008.7
20260509205755 10 254 11.3 20.9 0.00 0.00 0.00 37 1008.7
20260509205255 10 344 12.9 30.6 0.00 0.00 0.00 38 1008.7
20260509204755 10 31 12.9 24.1 0.00 0.00 0.00 37 1008.6
20260509204255 10 329 12.9 22.5 0.00 0.00 0.00 37 1008.5
20260509203755 10 322 12.9 30.6 0.00 0.00 0.00 37 1008.5
20260509203255 10 5 14.5 29.0 0.00 0.00 0.00 37 1008.3
20260509202755 10 340 14.5 32.2 0.00 0.00 0.00 38 1008.4
20260509202255 10 344 11.3 29.0 0.00 0.00 0.00 40 1008.4
20260509201755 11 35 9.7 25.7 0.00 0.00 0.00 38 1008.3
20260509201255 11 45 11.3 20.9 0.00 0.00 0.00 37 1008.2
20260509200755 11 14 12.9 30.6 0.00 0.00 0.00 37 1008.2
20260509200255 11 344 11.3 22.5 0.00 0.00 0.00 37 1008.1
20260509195755 11 57 11.3 24.1 0.00 0.00 0.00 39 1008.0
20260509195255 10 5 11.3 20.9 0.00 0.00 0.00 40 1007.9
20260509194755 10 327 11.3 32.2 0.00 0.00 0.00 40 1008.0
20260509194255 10 325 12.9 27.4 0.00 0.00 0.00 39 1008.0
20260509193755 10 338 14.5 40.2 0.00 0.00 0.00 39 1007.9
20260509193255 10 5 12.9 29.0 0.00 0.00 0.00 40 1007.7
20260509192755 10 346 14.5 22.5 0.00 0.00 0.00 38 1007.7
20260509192255 11 323 14.5 30.6 0.00 0.00 0.00 37 1007.7
20260509191755 11 349 12.9 25.7 0.00 0.00 0.00 40 1007.6
20260509191255 11 322 9.7 32.2 0.00 0.00 0.00 40 1007.5
20260509190755 10 315 9.7 19.3 0.00 0.00 0.00 42 1007.4
20260509190255 10 348 11.3 20.9 0.00 0.00 0.00 39 1007.4
20260509185755 11 44 11.3 27.4 0.00 0.00 0.00 40 1007.3
20260509185255 10 322 11.3 25.7 0.00 0.00 0.00 40 1007.2
20260509184755 10 291 11.3 24.1 0.00 0.00 0.00 42 1007.0
20260509184255 10 142 12.9 25.7 0.00 0.00 0.00 40 1007.0
20260509183755 10 348 16.1 29.0 0.00 0.00 0.00 42 1006.9
20260509183255 10 0 16.1 29.0 0.00 0.00 0.00 42 1007.0
20260509182755 10 346 19.3 29.0 0.00 0.00 0.00 40 1006.9
20260509182255 10 349 17.7 38.6 0.00 0.00 0.00 41 1006.9
20260509181755 10 5 11.3 35.4 0.00 0.00 0.00 43 1006.8
20260509181255 10 292 9.7 25.7 0.00 0.00 0.00 40 1006.6
20260509180755 10 267 11.3 24.1 0.00 0.00 0.00 40 1006.7
20260509180255 10 355 14.5 25.7 0.00 0.00 0.00 42 1006.8
20260509175755 10 355 14.5 30.6 0.00 0.00 0.00 40 1006.5
20260509175255 11 5 11.3 27.4 0.00 0.00 0.00 40 1006.6
20260509174755 10 244 11.3 30.6 0.00 0.00 0.00 41 1006.4
20260509174255 10 286 12.9 24.1 0.00 0.00 0.00 41 1006.3
20260509173755 10 313 14.5 29.0 0.00 0.00 0.00 40 1006.3
20260509173255 10 9 14.5 27.4 0.00 0.00 0.00 40 1006.3
20260509172755 10 355 14.5 29.0 0.00 0.00 0.00 40 1006.3
20260509172255 10 344 16.1 30.6 0.00 0.00 0.00 42 1006.1
20260509171755 10 318 16.1 38.6 0.00 0.00 0.00 41 1006.1
20260509171255 10 349 14.5 29.0 0.00 0.00 0.00 39 1006.1
20260509170755 10 0 16.1 32.2 0.00 0.00 0.00 38 1005.9
20260509170255 10 10 17.7 43.5 0.00 0.00 0.00 39 1005.9
20260509165755 10 251 19.3 43.5 0.00 0.00 0.00 40 1005.8
20260509165255 10 36 16.1 32.2 0.00 0.00 0.00 38 1005.8
20260509164755 10 11 14.5 33.8 0.00 0.00 0.00 38 1005.7
20260509164255 10 327 16.1 33.8 0.00 0.00 0.00 40 1005.6
20260509163755 10 327 17.7 37.0 0.00 0.00 0.00 38 1005.5
20260509163255 10 339 19.3 30.6 0.00 0.00 0.00 38 1005.4
20260509162755 10 0 19.3 38.6 0.00 0.00 0.00 38 1005.3
20260509162255 10 5 17.7 29.0 0.00 0.00 0.00 36 1005.2
20260509161755 10 294 12.9 24.1 0.00 0.00 0.00 37 1005.2
20260509161255 10 338 12.9 22.5 0.00 0.00 0.00 39 1005.2
20260509160755 10 282 11.3 25.7 0.00 0.00 0.00 38 1005.1
20260509160255 10 322 9.7 20.9 0.00 0.00 0.00 39 1004.9
20260509155755 10 0 12.9 20.9 0.00 0.00 0.00 38 1004.8
20260509155255 10 90 14.5 25.7 0.00 0.00 0.00 38 1005.0
20260509154755 10 265 12.9 30.6 0.00 0.00 0.00 39 1004.7
20260509154255 10 343 11.3 32.2 0.00 0.00 0.00 39 1004.8
20260509153755 10 322 9.7 35.4 0.00 0.00 0.00 37 1004.7
20260509153255 10 288 11.3 22.5 0.00 0.00 0.00 37 1004.5
20260509152755 10 312 14.5 25.7 0.00 0.00 0.00 38 1004.5
20260509152255 10 346 14.5 35.4 0.00 0.00 0.00 38 1004.4
20260509151755 10 343 14.5 35.4 0.00 0.00 0.00 39 1004.4
20260509151255 10 23 14.5 33.8 0.00 0.00 0.00 39 1004.3
20260509150755 10 10 9.7 25.7 0.00 0.00 0.00 39 1004.4
20260509150255 9 10 11.3 24.1 0.00 0.00 0.00 40 1004.2
20260509145755 9 321 12.9 29.0 0.00 0.00 0.00 40 1004.2
20260509145255 9 29 12.9 22.5 0.00 0.00 0.00 39 1004.2
20260509144755 9 355 14.5 29.0 0.00 0.00 0.00 38 1004.1
20260509144255 8 17 14.5 22.5 0.00 0.00 0.00 40 1004.0
20260509143755 8 309 11.3 27.4 0.00 0.00 0.00 40 1004.0
20260509143255 8 217 12.9 30.6 0.00 0.00 0.00 39 1003.9
20260509142755 8 269 11.3 29.0 0.00 0.00 0.00 39 1003.9
20260509142255 8 283 11.3 25.7 0.00 0.00 0.00 40 1003.8
20260509141755 8 343 11.3 22.5 0.00 0.00 0.00 38 1003.7
20260509141255 9 340 9.7 25.7 0.00 0.00 0.00 41 1003.6
20260509140756 8 5 9.7 17.7 0.00 0.00 0.00 41 1003.6
20260509140255 8 319 8.0 20.9 0.00 0.00 0.00 43 1003.6
20260509135755 8 272 8.0 24.1 0.00 0.00 0.00 43 1003.4
20260509135256 8 27 11.3 16.1 0.00 0.00 0.00 44 1003.5
20260509134756 8 277 9.7 20.9 0.00 0.00 0.00 48 1003.4
20260509134256 8 326 6.4 22.5 0.00 0.00 0.00 50 1003.5
20260509133756 8 303 6.4 14.5 0.00 0.00 0.00 53 1003.4
20260509133256 7 20 4.8 14.5 0.00 0.00 0.00 53 1003.4
20260509132756 7 323 3.2 12.9 0.00 0.00 0.00 56 1003.4
20260509132256 7 294 4.8 12.9 0.00 0.00 0.00 56 1003.3
20260509131756 7 306 4.8 12.9 0.00 0.00 0.00 58 1003.1
20260509131256 7 292 4.8 11.3 0.00 0.00 0.00 58 1003.1
20260509130756 7 273 4.8 12.9 0.00 0.00 0.00 61 1003.1
20260509130256 7 299 4.8 9.7 0.00 0.00 0.00 62 1003.1
20260509125756 7 277 3.2 9.7 0.00 0.00 0.00 64 1003.0
20260509125256 7 292 3.2 12.9 0.00 0.00 0.00 64 1003.0
20260509124756 7 344 3.2 9.7 0.00 0.00 0.00 65 1003.0
20260509124256 7 241 4.8 8.0 0.00 0.00 0.00 66 1002.9
20260509123756 7 299 4.8 14.5 0.00 0.00 0.00 66 1002.7
20260509123256 6 270 4.8 11.3 0.00 0.00 0.00 69 1002.7
20260509122756 6 294 3.2 12.9 0.00 0.00 0.00 71 1002.7
20260509122256 6 292 1.6 12.9 0.00 0.00 0.00 73 1002.7
20260509121756 6 253 1.6 3.2 0.00 0.00 0.00 74 1002.7
20260509121256 6 330 1.6 6.4 0.00 0.00 0.00 75 1002.7
20260509120756 6 311 1.6 4.8 0.00 0.00 0.00 75 1002.7
20260509120256 6 283 3.2 8.0 0.00 0.00 0.00 75 1002.6
20260509115756 6 255 3.2 11.3 0.00 0.00 0.00 75 1002.7
20260509115256 6 219 1.6 4.8 0.00 0.00 0.00 74 1002.6
20260509114756 6 330 0.0 3.2 0.00 0.00 0.00 74 1002.5
20260509114256 6 226 1.6 3.2 0.00 0.00 0.00 74 1002.4
20260509113756 6 240 1.6 8.0 0.00 0.00 0.00 73 1002.3
20260509113256 6 150 1.6 3.2 0.00 0.00 0.00 73 1002.3
20260509112756 6 242 3.2 8.0 0.00 0.00 0.00 72 1002.4
20260509112256 6 323 3.2 8.0 0.00 0.00 0.00 71 1002.3
20260509111756 6 273 3.2 8.0 0.00 0.00 0.00 71 1002.3
20260509111256 6 173 1.6 4.8 0.00 0.00 0.00 70 1002.2
20260509110756 7 157 1.6 8.0 0.00 0.00 0.00 69 1002.1
20260509110256 7 265 3.2 3.2 0.00 0.00 0.00 68 1001.9
20260509105756 7 217 1.6 6.4 0.00 0.00 0.00 66 1001.9
20260509105256 7 282 1.6 6.4 0.00 0.00 0.00 64 1001.9
20260509104756 7 213 3.2 6.4 0.00 0.00 0.00 63 1001.9
20260509104256 7 111 3.2 9.7 0.00 0.00 0.00 61 1001.8
20260509103756 8 225 3.2 11.3 0.00 0.00 0.00 59 1001.7
20260509103256 8 320 3.2 8.0 0.00 0.00 0.00 56 1001.7
20260509102758 8 12 1.6 4.8 0.00 0.00 0.00 49 1001.7
20260509102256 8 271 1.6 4.8 0.00 0.00 0.00 50 1001.7
20260509101756 8 247 1.6 9.7 0.00 0.00 0.00 49 1001.6
20260509101256 8 283 1.6 4.8 0.00 0.00 0.00 49 1001.6
20260509100756 8 192 1.6 3.2 0.00 0.00 0.00 49 1001.6
20260509100256 8 201 1.6 6.4 0.00 0.00 0.00 49 1001.7
20260509095756 8 299 0.0 3.2 0.00 0.00 0.00 49 1001.7
20260509095256 8 178 0.0 3.2 0.00 0.00 0.00 49 1001.6
20260509094756 8 306 1.6 3.2 0.00 0.00 0.00 50 1001.7
20260509094256 8 200 3.2 6.4 0.00 0.00 0.00 47 1001.6
20260509093756 8 267 1.6 8.0 0.00 0.00 0.00 48 1001.6
20260509093256 8 169 1.6 4.8 0.00 0.00 0.00 47 1001.6
20260509092756 8 202 1.6 4.8 0.00 0.00 0.00 47 1001.6
20260509092256 8 313 3.2 4.8 0.00 0.00 0.00 46 1001.6
20260509091756 8 290 3.2 9.7 0.00 0.00 0.00 46 1001.6
20260509091256 8 281 3.2 4.8 0.00 0.00 0.00 46 1001.6
20260509090756 8 304 4.8 12.9 0.00 0.00 0.00 46 1001.6
20260509090256 8 234 3.2 14.5 0.00 0.00 0.00 45 1001.4
20260509085756 8 335 1.6 6.4 0.00 0.00 0.00 45 1001.5
20260509085256 9 249 1.6 6.4 0.00 0.00 0.00 45 1001.4
20260509084756 9 180 1.6 3.2 0.00 0.00 0.00 46 1001.4
20260509084256 9 309 3.2 6.4 0.00 0.00 0.00 44 1001.4
20260509083756 9 300 3.2 6.4 0.00 0.00 0.00 44 1001.3
20260509083256 9 315 3.2 16.1 0.00 0.00 0.00 45 1001.4
20260509082756 9 309 1.6 12.9 0.00 0.00 0.00 45 1001.4
20260509082256 9 160 0.0 3.2 0.00 0.00 0.00 47 1001.4
20260509081756 9 211 1.6 3.2 0.00 0.00 0.00 47 1001.5
20260509081256 9 263 1.6 3.2 0.00 0.00 0.00 47 1001.4
20260509080756 9 205 1.6 4.8 0.00 0.00 0.00 48 1001.4
20260509080256 8 281 1.6 8.0 0.00 0.00 0.00 48 1001.5
20260509075757 8 273 1.6 6.4 0.00 0.00 0.00 49 1001.4
20260509075256 8 202 1.6 6.4 0.00 0.00 0.00 51 1001.5
20260509074756 8 140 3.2 6.4 0.00 0.00 0.00 52 1001.5
20260509074256 7 118 1.6 4.8 0.00 0.00 0.00 55 1001.5
20260509073756 7 236 0.0 4.8 0.00 0.00 0.00 55 1001.6
20260509073256 7 267 0.0 0.0 0.00 0.00 0.00 58 1001.7
20260509072756 7 282 0.0 0.0 0.00 0.00 0.00 60 1001.6
20260509072256 7 270 0.0 0.0 0.00 0.00 0.00 59 1001.6
20260509071756 7 270 0.0 0.0 0.00 0.00 0.00 59 1001.5
20260509071256 7 270 0.0 0.0 0.00 0.00 0.00 59 1001.5
20260509070756 7 270 0.0 0.0 0.00 0.00 0.00 58 1001.5
20260509070256 7 261 0.0 0.0 0.00 0.00 0.00 59 1001.4
20260509065756 7 261 0.0 0.0 0.00 0.00 0.00 59 1001.5
20260509065256 7 261 0.0 0.0 0.00 0.00 0.00 57 1001.6
20260509064756 7 261 0.0 0.0 0.00 0.00 0.00 56 1001.7
20260509064257 7 261 0.0 0.0 0.00 0.00 0.00 57 1001.7
20260509063757 7 261 0.0 0.0 0.00 0.00 0.00 55 1001.7
20260509063257 8 261 0.0 0.0 0.00 0.00 0.00 54 1001.8
20260509062757 8 260 0.0 0.0 0.00 0.00 0.00 52 1002.1
20260509062257 8 259 0.0 0.0 0.00 0.00 0.00 51 1002.1
20260509061757 8 259 0.0 0.0 0.00 0.00 0.00 51 1002.0
20260509061257 8 251 0.0 0.0 0.00 0.00 0.00 51 1001.9
20260509060757 8 281 0.0 0.0 0.00 0.00 0.00 50 1001.9
20260509060257 8 298 0.0 0.0 0.00 0.00 0.00 50 1001.9
20260509055757 8 221 0.0 0.0 0.00 0.00 0.00 48 1001.9
20260509055257 9 269 0.0 1.6 0.00 0.00 0.00 48 1001.9
20260509054757 9 269 0.0 3.2 0.00 0.00 0.00 48 1001.9
20260509054257 9 267 0.0 0.0 0.00 0.00 0.00 46 1001.6
20260509053757 10 261 0.0 1.6 0.00 0.00 0.00 46 1001.7
20260509053257 10 241 0.0 3.2 0.00 0.00 0.00 45 1001.8
20260509052757 10 229 0.0 0.0 0.00 0.00 0.00 46 1001.8
20260509052257 10 254 1.6 3.2 0.00 0.00 0.00 43 1002.1
20260509051757 10 276 1.6 6.4 0.00 0.00 0.00 43 1002.0
20260509051257 10 242 1.6 3.2 0.00 0.00 0.00 43 1002.0
20260509050757 11 270 1.6 8.0 0.00 0.00 0.00 43 1001.8
20260509050257 11 266 1.6 6.4 0.00 0.00 0.00 42 1001.8
20260509045757 11 213 3.2 6.4 0.00 0.00 0.00 41 1001.9
20260509045257 11 246 3.2 6.4 0.00 0.00 0.00 40 1001.9
20260509044757 11 346 3.2 9.7 0.00 0.00 0.00 39 1001.9
20260509044257 12 286 3.2 12.9 0.00 0.00 0.00 40 1001.9
20260509043757 12 334 4.8 11.3 0.00 0.00 0.00 39 1001.9
20260509043257 12 5 4.8 17.7 0.00 0.00 0.00 39 1001.9
20260509042757 12 264 4.8 14.5 0.00 0.00 0.00 39 1001.8
20260509042257 12 327 4.8 9.7 0.00 0.00 0.00 40 1001.8
20260509041757 12 327 4.8 14.5 0.00 0.00 0.00 39 1001.7
20260509041257 11 317 4.8 11.3 0.00 0.00 0.00 40 1001.6
20260509040757 11 243 4.8 12.9 0.00 0.00 0.00 41 1001.6
20260509040257 10 355 3.2 11.3 0.00 0.00 0.00 44 1001.6
20260509035757 9 355 1.6 11.3 0.00 0.00 0.00 47 1001.5
20260509035257 8 262 0.0 0.0 0.00 0.00 0.00 50 1001.4
20260509034757 8 277 0.0 0.0 0.00 0.00 0.00 50 1001.3
20260509034257 8 231 0.0 0.0 0.00 0.00 0.00 50 1001.3
20260509033759 8 201 0.0 0.0 0.00 0.00 0.00 51 1001.3
20260509033257 8 244 0.0 0.0 0.00 0.00 0.00 50 1001.3
20260509032757 8 182 0.0 0.0 0.00 0.00 0.00 51 1001.2
20260509032257 8 236 0.0 0.0 0.00 0.00 0.00 51 1001.2
20260509031757 9 236 0.0 0.0 0.00 0.00 0.00 49 1001.1
20260509031257 9 236 0.0 0.0 0.00 0.00 0.00 49 1001.2
20260509030757 9 236 0.0 1.6 0.00 0.00 0.00 47 1001.2
20260509030257 10 236 0.0 0.0 0.00 0.00 0.00 47 1001.2
20260509025757 10 236 0.0 0.0 0.00 0.00 0.00 48 1001.2
20260509025257 10 236 0.0 0.0 0.00 0.00 0.00 46 1001.2
20260509024757 10 236 0.0 0.0 0.00 0.00 0.00 47 1001.1
20260509024257 10 236 0.0 0.0 0.00 0.00 0.00 46 1001.1
20260509023757 11 236 0.0 0.0 0.00 0.00 0.00 46 1001.2
20260509023257 11 236 0.0 0.0 0.00 0.00 0.00 46 1001.2
20260509022757 11 236 0.0 0.0 0.00 0.00 0.00 46 1001.1
20260509022257 11 236 0.0 0.0 0.00 0.00 0.00 44 1001.2
20260509021757 11 236 0.0 0.0 0.00 0.00 0.00 43 1001.2
20260509021257 11 236 0.0 0.0 0.00 0.00 0.00 42 1001.2
20260509020757 11 236 0.0 0.0 0.00 0.00 0.00 43 1001.2
20260509020257 12 236 0.0 0.0 0.00 0.00 0.00 43 1001.1
20260509015757 12 236 0.0 0.0 0.00 0.00 0.00 42 1001.1
20260509015257 12 236 0.0 0.0 0.00 0.00 0.00 42 1001.2
20260509014757 12 236 0.0 0.0 0.00 0.00 0.00 40 1001.2
20260509014257 12 236 0.0 0.0 0.00 0.00 0.00 39 1001.2
20260509013757 12 236 0.0 0.0 0.00 0.00 0.00 39 1001.2
20260509013257 13 236 0.0 0.0 0.00 0.00 0.00 39 1001.2
20260509012757 13 236 0.0 0.0 0.00 0.00 0.00 38 1001.2
20260509012257 13 236 0.0 0.0 0.00 0.00 0.00 38 1001.3
20260509011757 13 236 0.0 1.6 0.00 0.00 0.00 38 1001.3
20260509011257 13 236 0.0 1.6 0.00 0.00 0.00 37 1001.3
20260509010757 14 236 0.0 0.0 0.00 0.00 0.00 36 1001.4
20260509010257 14 236 0.0 0.0 0.00 0.00 0.00 35 1001.4
20260509005757 14 236 0.0 0.0 0.00 0.00 0.00 35 1001.5
20260509005257 15 236 0.0 0.0 0.00 0.00 0.00 35 1001.4
20260509004757 15 236 0.0 3.2 0.00 0.00 0.00 34 1001.4
20260509004257 15 255 0.0 3.2 0.00 0.00 0.00 32 1001.5
20260509003757 15 223 1.6 3.2 0.00 0.00 0.00 32 1001.4
20260509003257 15 330 1.6 6.4 0.00 0.00 0.00 31 1001.5
20260509002757 15 263 0.0 4.8 0.00 0.00 0.00 32 1001.5